Location: Champignolles
(47.0543°N, 4.5663°E)
Time: 05:16:29
(UTC+00:00)

USA 238 - Pass Details

Date: 30 November 2020
Orbit: 997 x 1215 km, 63.4° (Epoch: 11 January)

Event Time Altitude Azimuth Distance (km) Brightness Sun altitude
Rises 17:45:50 0° 188° (S) 3,712 6.8 -18.3°
Reaches altitude 10° 17:48:33 10° 180° (S) 2,779 6.0 -18.7°
Maximum altitude 17:54:27 37° 116° (ESE) 1,546 4.1 -19.7°
Enters shadow 17:55:58 33° 88° (E) 1,669 4.2 -20.0°
